Starlink 5156

operational
NORAD ID: 53973 Int'l Des: 2022-125 Owner: SPXS Country: US Constellation: starlink
LEOCIRCULAR

About Starlink 5156

Description loading...

Live Position

Loading 3D Globe...

Upcoming Passes

Altitude History

Altitude vs Time

uPlot chart will show altitude changes over time

Two-Line Element Set

1 53973U 22125K 25340.55491536 -.00001469 00000-0 -74205-4 0 9995
2 53973 53.2167 282.0984 0001416 91.1417 268.9738 15.08843386175261
Epoch: Dec 6, 2025 • Age: 18 hours

Current Status

Altitude 539.7 km
Velocity 7.59 km/s
Sub-Earth Point 10.03°N, 107.17°E
Launch Date Oct 5, 2022
Age 3.1 years
Type internet

Technical Details

Classification Payload
Mass 305.00 kg
Dry Mass 290.00 kg
Total Mass 305.00 kg
Length 0.20 m
Diameter 2.80 m
Span 9.00 m
Shape Box + pan
Manufacturer SPXS
Bus Type Starlink
Phase Status In Orbit
Owner/State SPXS/US

Large Constellations

Loading constellations...